This is the latest recevied weather packets stored in our database for station/object IR4UCA-3. If no packets are shown the sender has not sent any weather packets the latest 1 day(s).
| Time | Temp. | Humidity | Pressure | Rain* | Wind** | Luminosity | Snow |
|---|---|---|---|---|---|---|---|
| 1777997171 | 19.44° C | 84% | 1011.2 hPa | 0 mm | 3.13 m/s, 0° | - | - |
| 1777997049 | 19.44° C | 84% | 1011.1 hPa | 0 mm | 2.24 m/s, 0° | - | - |
| 1777996927 | 19.44° C | 83% | 1011.2 hPa | 0 mm | 2.68 m/s, 1° | - | - |
| 1777996845 | 19.44° C | 83% | 1011.1 hPa | 0 mm | 2.68 m/s, 343° | - | - |
| 1777996686 | 19.44° C | 84% | 1011.2 hPa | 0 mm | 2.24 m/s, 347° | - | - |
| 1777996575 | 19.44° C | 84% | 1011.1 hPa | 0 mm | 2.68 m/s, 0° | - | - |
| 1777996446 | 19.44° C | 84% | 1011.2 hPa | 0 mm | 2.24 m/s, 13° | - | - |
| 1777996330 | 19.44° C | 84% | 1011.2 hPa | 0 mm | 1.79 m/s, 21° | - | - |
| 1777996232 | 19.44° C | 84% | 1011.2 hPa | 0 mm | 1.79 m/s, 354° | - | - |
| 1777996092 | 19.44° C | 84% | 1011.1 hPa | 0 mm | 2.68 m/s, 1° | - | - |
| 1777995977 | 19.44° C | 83% | 1011.1 hPa | 0 mm | 3.58 m/s, 0° | - | - |
| 1777995846 | 19.44° C | 83% | 1011 hPa | 0 mm | 3.58 m/s, 345° | - | - |
| 1777995726 | 19.44° C | 83% | 1011.1 hPa | 0 mm | 4.47 m/s, 354° | - | - |
| 1777995626 | 19.44° C | 84% | 1011.1 hPa | 0 mm | 3.58 m/s, 358° | - | - |
| 1777995488 | 19.44° C | 83% | 1011.1 hPa | 0 mm | 2.68 m/s, 344° | - | - |
| 1777995367 | 19.44° C | 83% | 1011.1 hPa | 0 mm | 3.58 m/s, 0° | - | - |
| 1777995245 | 19.44° C | 83% | 1011.1 hPa | 0 mm | 3.13 m/s, 0° | - | - |
| 1777995122 | 19.44° C | 83% | 1011.1 hPa | 0 mm | 2.68 m/s, 337° | - | - |
| 1777995005 | 19.44° C | 83% | 1011.2 hPa | 0 mm | 2.24 m/s, 326° | - | - |
| 1777994895 | 19.44° C | 83% | 1011 hPa | 0 mm | 1.79 m/s, 13° | - | - |
| 1777994773 | 19.44° C | 83% | 1011 hPa | 0 mm | 2.68 m/s, 8° | - | - |
| 1777994642 | 19.44° C | 83% | 1011.1 hPa | 0 mm | 4.92 m/s, 0° | - | - |
| 1777994524 | 19.44° C | 82% | 1011.1 hPa | 0 mm | 4.02 m/s, 6° | - | - |
| 1777994417 | 19.44° C | 83% | 1011.1 hPa | 0 mm | 3.13 m/s, 0° | - | - |
| 1777994281 | 19.44° C | 83% | 1011.1 hPa | 0 mm | 1.79 m/s, 310° | - | - |
* Rain latest hour (hover to see other rain measurements)
** Current wind speed in m/s (hover to see current wind gust speed)